{"data":{"norad_id":51472,"epoch":"2026-09-20T03:37:55.000992Z","epoch_age_seconds":78485,"freshness":"FRESH","line1":"1 51472U 22010S   26263.15133103  .00006248  00000+0  19586-3 0  9991","line2":"2 51472  53.1604 117.0035 0000927  78.2299 281.8808 15.34405546256300","mean_motion":15.34405546,"eccentricity":9.27e-5,"inclination_deg":53.1604,"raan_deg":117.0035,"arg_perigee_deg":78.2299,"mean_anomaly_deg":281.8808,"bstar":0.00019586,"rev_number":25630,"period_min":93.84741887527,"perigee_km":462.05261201377,"apogee_km":463.3209007382,"semimajor_km":6840.823756376,"source":"CELESTRAK","updated_at":"2026-09-20T09:00:39.596307Z"}}